EHI
0 0 0 0 0 0 0 0 0 0 0 0 0 0 0 0 0 0 0 0 0 0 0 0 0 0 0 0 0 0 0 0 0 0 0 0 0 0
0 0 0 0 0 0 0 0 0 0 0 0 0 0 0 0 0 0 0 0 0 0 0 0 0 0 0 0 0 0 0 0 0 0 0 0 0 0
0 0 0 0 0 0 0 0 0 0 0 0 0 0 0 0 0 0 0 0 0 0 0 0 0 0 0 0 0 0 0 0 0 0 0 0 0 0
0 0 0 0 0 0 0 0 0 0 0 0 0 0 0 0 0 0 0 0 0 0 0 0 0 0 0 0 0 0 0 0 0 0 0 0 0 0
0 0 0 0 0 0 0 0 0 0 0 0 0 0 0 0 0 0 0 0 0 0 0 0 0 0 0 0 0 0 0 0 0 0 0 0 0 0
0 0 0 0 0 0 0 0 0 0 0 0 0 0 0 0 0 0 0 0 0 0 0 0 0 0 0 0 0 0 0 0 0 0 0 0 0 0
0 0 0 0 0 0 0 0 0 0 0 0 0 0 0 0 0 0 0 0 0 0 0 0 0 0 0 0 0 0 0 0 0 0 0 0 0 0
0 0 0 0 0 0 0 0 0 0 0 0 0 0 0 0 0 0 0 0 0 0 0 0 0 0 0 0 0 0 0 0 0 0 0 0 0 0
0 0 0 0 0 0 0 0 0 0 0 0 0 0 0 0 0 0 0 0 0 0 0 0 0 0 0 0 0 0 0 0 0 0 0 0 0 0
0 0 0 0 0 0 0 0 0 0 0 0 0 0 0 0 0 0 0 0 0 0 0 0 0 0 0 0 0 0 0 0 0 0 0 0 0 0
0 0 0 0 0 0 0 0 0 0 0 0 0 0 0 0 0 0 0 0 0 0 0 0 0 0 0 0 0 0 0 0 0 0 0 0 0 0
0 0 0 0 0 0 0 0 0 0 0 0 0 0 0 0 0 0 0 0 0 0 0 0 0 0 0 0 0 0 0 0 0 0 0 0 0 0
0 0 0 0 0 0 0 0 0 0 0 0 0 0 0 0 0 0 0 0 0 0 0 0 0 0 0 0 0 0 0 0 0 0 0 0 0 0
0 0 0 0 0 0 0 0 0 0 0 0 0 0 0 0 0 0 0 0 0 0 0 0 0 0 0 0 0 0 0 0 0 0 0 0 0 0
0 0 0 0 0 0 0 0 0 0 0 0 0 0 0 0 0 0 0 0 0 0 0 0 0 0 0 0 0 0 0 0 0 0 0 0 0 0
0 0 0 0 0 0 0 0 0 0 0 0 0 0 0 0 0 0 0 0 0 0 0 0 0 0 0 0 0 0 0 0 0 0 0 0 0 0
0 0 0 0 0 0 0 0 0 0 0 0 0 0 0 0 0 0 0 0 0 0 0 0 0 0 0 0 0 0 0 0 0 0 0 0 0 0
0 0 0 0 0 0 0 0 0 0 0 0 0 0 0 0 0 0 0 0 0 0 0 0 0 0 0 0 0 0 0 0 0 0 0 0 0 0
0 0 0 0 0 0 0 0 0 0 0 0 0 0 0 0 0 0 0 0 0 0 0 0 0 0 0 0 0 0 0 0 0 0 0 0 0 0
0 0 0 0 0 0 0 0 0 0 0 0 0 0 0 0 0 0 0 0 0 0 0 0 0 0 0 0 0 0 0 0 0 0 0 0 0 0
0 0 0 0 0 0 0 0 0 0 0 0 0 0 0 0 0 0 0 0 0 0 0 0 0 0 0 0 0 0 0 0 0 0 0 0 0 0
0 0 0 0 0 0 0 0 0 0 0 0 0 0 0 0 0 0 0 0 0 0 0 0 0 0 0 0 0 0 0 0 0 0 0 0 0 0
0 0 0 0 0 0 0 0 0 0 0 0 0 0 0 0 0 0 0 0 0 0 0 0 0 0 0 0 0 0 0 0 0 0 0 0 0 0
Wind_Speed
3 2 2 3 4 4 4 5 4 3 3 4 4 3 4 4 7 5 4 8 9 8 7 6 5 3 2 2 1 1 3 4 5 5 6 8 8 8
2 2 2 2 4 4 6 6 6 5 5 4 4 3 3 4 7 6 6 9 11 11 10 9 7 5 4 3 3 3 4 5 6 7 7 7 8 9
1 1 3 3 4 4 5 6 7 7 8 6 2 2 4 4 4 4 5 5 6 11 12 11 9 7 6 6 5 4 5 5 6 8 8 8 7 7
1 2 5 5 5 5 6 7 8 8 8 7 4 3 4 3 3 4 4 5 5 10 13 12 11 9 9 8 7 6 6 5 5 6 7 8 5 4
1 2 4 4 4 4 5 5 6 6 6 6 5 3 2 1 2 2 2 3 5 8 10 11 12 12 12 11 9 8 6 5 5 5 7 4 1 2
3 3 2 2 3 4 4 4 5 5 6 7 4 3 2 1 1 2 3 4 4 5 7 9 11 13 14 12 11 9 8 7 6 6 6 5 3 2
4 2 1 1 3 2 2 1 1 2 2 3 2 2 2 2 3 3 4 3 4 5 3 5 6 7 8 10 11 12 11 10 8 8 7 6 5 4
5 3 3 2 3 4 5 5 4 4 3 2 2 4 4 3 3 3 4 3 4 5 5 4 5 6 6 7 11 13 13 13 11 10 9 8 7 6
5 5 4 4 5 4 5 6 5 6 5 3 2 3 2 4 3 3 4 4 4 4 4 2 3 5 6 7 13 15 16 15 14 12 12 11 10 9
5 5 4 3 3 4 4 4 4 4 5 5 5 5 3 3 3 3 4 4 2 3 4 3 3 3 3 5 12 15 15 15 15 13 12 12 11 9
2 3 3 3 6 6 5 4 5 6 7 10 11 10 10 8 6 5 4 3 3 3 4 3 2 2 2 2 3 8 10 11 12 12 11 10 10 9
2 3 4 5 8 6 5 5 6 6 5 5 7 9 8 5 5 5 4 3 3 2 4 4 2 2 1 0 1 1 3 6 8 10 11 11 10 6
3 3 3 7 7 7 5 6 7 4 3 3 2 1 1 1 1 2 1 1 1 1 4 4 2 1 0 2 1 1 0 1 3 5 8 10 10 9
4 4 4 7 7 6 4 7 8 4 2 2 1 1 1 1 1 0 1 1 1 1 4 4 1 1 1 1 2 2 1 1 1 1 3 4 7 8
4 7 8 9 8 5 5 6 6 4 3 2 1 1 1 1 1 1 1 1 1 1 1 2 2 1 2 2 1 1 2 1 1 1 2 3 4 5
5 5 7 7 5 3 3 4 4 3 2 2 2 2 2 1 1 1 1 1 1 1 1 2 2 2 2 3 3 3 3 2 1 2 2 3 4 6
4 1 2 1 1 1 3 3 3 3 3 2 2 2 2 1 0 1 1 1 1 1 2 1 2 3 4 3 4 5 5 4 3 3 3 4 4 6
1 1 1 1 2 2 2 3 2 2 3 3 3 3 2 1 1 0 0 1 2 1 2 2 2 2 2 4 7 5 4 3 2 2 3 3 5 5
5 4 2 3 4 4 3 3 3 3 3 3 3 3 3 3 3 2 2 2 2 2 2 2 1 1 2 4 4 5 3 2 1 1 3 4 5 5
6 7 6 6 6 5 4 4 4 4 4 4 4 4 4 3 3 3 3 2 2 3 3 2 2 2 3 3 3 3 4 5 3 3 3 3 5 6
7 7 7 6 6 5 5 5 5 5 4 4 3 3 3 2 2 2 3 4 4 3 3 3 3 3 2 2 3 3 2 5 6 5 4 3 3 2
5 6 6 6 6 5 5 5 5 5 5 4 3 2 2 2 2 3 3 4 4 3 4 4 4 2 1 2 3 3 4 3 3 3 2 3 3 4
6 6 6 6 6 6 6 6 6 5 5 5 4 4 3 2 2 3 3 3 4 4 4 4 3 2 1 2 2 2 2 3 3 3 2 3 2 4
Wind_Direction
218 215 162 167 181 194 170 163 193 229 256 233 222 204 196 199 204 195 181 204 196 195 196 195 198 197 185 188 195 319 326 321 313 315 329 331 332 341
220 196 197 168 188 198 191 183 196 213 250 240 223 215 179 195 205 193 192 203 203 198 200 205 209 210 211 218 229 258 290 304 311 313 313 316 321 324
262 261 262 224 203 201 199 202 210 202 228 241 216 219 186 186 199 192 193 193 207 205 205 210 213 216 222 230 233 241 265 287 301 300 292 294 303 328
228 275 280 264 238 217 207 208 213 206 214 236 221 203 209 179 171 180 195 201 203 209 210 213 217 216 220 226 230 230 239 253 273 296 298 283 284 319
235 254 277 279 268 246 227 222 216 207 205 221 225 194 196 138 124 140 187 211 214 214 215 216 219 220 219 217 219 223 230 240 255 276 304 331 18 324
237 268 277 268 274 266 250 237 218 207 198 206 198 178 186 169 162 190 215 211 215 213 214 216 221 227 229 223 219 220 227 235 246 255 273 281 260 277
209 240 301 327 300 290 286 287 210 196 196 198 175 164 171 175 209 198 215 194 213 204 198 216 219 226 227 228 227 229 222 224 233 239 241 245 243 250
198 213 228 233 255 276 281 272 237 200 183 191 207 220 207 198 202 192 183 171 210 183 184 214 203 223 219 220 220 220 223 218 221 228 228 226 227 236
200 205 212 219 227 251 278 282 245 218 197 182 207 236 234 212 199 200 198 188 196 172 165 210 195 232 223 227 227 223 221 219 217 219 218 216 216 220
209 215 214 225 234 225 231 253 257 238 216 206 216 234 227 214 218 218 201 194 192 171 164 216 202 225 219 227 228 228 221 215 214 217 217 216 216 221
239 225 225 246 250 226 206 226 247 246 236 237 233 234 231 227 225 222 200 189 202 198 187 207 207 239 235 248 239 232 222 218 214 214 217 219 219 222
293 274 265 266 276 252 212 206 231 242 222 237 251 253 244 238 244 240 218 191 173 194 187 184 200 223 286 340 1 319 243 222 217 215 215 216 212 213
297 280 274 274 274 282 256 213 213 217 221 212 243 248 191 132 12 320 246 170 160 218 182 178 205 197 268 319 335 40 330 232 203 211 214 217 209 202
293 290 290 292 286 278 264 220 207 187 145 146 122 85 102 133 173 228 243 267 245 243 179 179 203 182 162 295 300 350 360 243 224 201 199 216 220 213
303 301 301 302 293 273 235 192 167 147 137 143 151 119 123 140 111 72 41 33 10 318 171 181 204 202 190 223 267 290 304 299 197 214 206 217 223 222
321 300 293 296 269 196 140 129 129 138 144 147 135 107 93 85 62 53 34 5 311 297 307 268 227 226 223 232 241 250 230 250 222 213 234 231 219 219
291 297 305 312 148 121 111 117 125 134 130 125 118 113 110 118 352 6 0 328 303 326 325 307 273 258 250 248 246 247 253 243 235 211 202 248 240 224
23 52 346 196 135 100 109 108 94 89 79 81 83 78 62 45 5 337 300 294 297 318 317 317 335 324 309 259 228 243 251 257 246 213 205 244 268 239
32 35 24 63 78 74 74 87 88 80 85 83 79 63 51 39 26 23 15 353 340 330 315 308 282 270 284 294 268 220 241 259 249 242 221 224 262 268
29 35 35 49 54 53 50 60 70 68 63 64 60 52 42 34 23 10 353 332 308 296 294 284 260 238 242 267 285 285 234 248 257 270 252 231 254 275
27 36 37 45 50 51 49 55 62 64 65 65 63 62 53 47 19 349 330 314 305 296 300 300 299 303 290 293 275 285 276 254 269 285 296 289 277 273
28 34 37 40 42 47 51 55 60 58 55 50 39 35 36 40 15 350 350 345 337 326 308 304 311 320 278 238 264 288 299 313 318 307 294 309 325 314
35 37 35 33 33 32 33 38 43 44 37 24 13 3 2 9 0 348 341 337 331 333 332 324 322 300 248 245 266 271 293 311 328 339 15 19 328 305